DLH8AN EDDM-EDDH

Flight info

Callsign DLH8AN
Flight time 1h 6m
Altitude 34000
Route INPUD2N/26R INPUD Y102 UPALA M726 NARUS DCT ABGUS DCT DIRBO/N0353F230 T902 RARUP RARUP6A
Aircraft A21N/M-SDE2E3FGIJ1LORWXYZ/HB1

Departure

Time 2026-05-07 19:07
Airport Munich Airport (EDDM)

Arrival

Time 2026-05-07 20:13
Airport Hamburg Helmut Schmidt Airport (EDDH)
Time Latitude Longitude Altitude Speed Heading
2026-05-07 18:25 48.35525 11.79298 1482 ft 0 kts 263°
2026-05-07 18:52 48.35526 11.79309 1491 ft 4 kts 263°
2026-05-07 18:52 48.35529 11.79349 1486 ft 4 kts 263°
2026-05-07 18:53 48.35532 11.79382 1487 ft 4 kts 265°
2026-05-07 18:53 48.35530 11.79420 1479 ft 4 kts 295°
2026-05-07 18:53 48.35515 11.79443 1477 ft 4 kts 351°
2026-05-07 18:53 48.35491 11.79448 1483 ft 2 kts 353°
2026-05-07 18:54 48.35489 11.79448 1483 ft 0 kts 353°
2026-05-07 18:57 48.35491 11.79448 1483 ft 2 kts 353°
2026-05-07 18:58 48.35519 11.79443 1479 ft 6 kts 353°
2026-05-07 18:58 48.35573 11.79433 1488 ft 9 kts 353°
2026-05-07 18:58 48.35649 11.79420 1487 ft 13 kts 354°
2026-05-07 18:58 48.35745 11.79403 1486 ft 15 kts 354°
2026-05-07 18:59 48.35855 11.79385 1487 ft 17 kts 353°
2026-05-07 18:59 48.35964 11.79339 1491 ft 17 kts 351°
2026-05-07 18:59 48.35998 11.79333 1486 ft 0 kts 353°
2026-05-07 19:00 48.36006 11.79331 1479 ft 3 kts 353°
2026-05-07 19:00 48.36047 11.79324 1486 ft 9 kts 353°
2026-05-07 19:01 48.36122 11.79310 1488 ft 13 kts 353°
2026-05-07 19:01 48.36200 11.79367 1485 ft 15 kts 69°
2026-05-07 19:01 48.36219 11.79541 1489 ft 19 kts 83°
2026-05-07 19:01 48.36235 11.79750 1480 ft 21 kts 83°
2026-05-07 19:02 48.36253 11.79985 1491 ft 23 kts 83°
2026-05-07 19:02 48.36272 11.80236 1491 ft 25 kts 83°
2026-05-07 19:02 48.36293 11.80503 1485 ft 26 kts 83°
2026-05-07 19:02 48.36315 11.80784 1483 ft 28 kts 84°
2026-05-07 19:03 48.36335 11.81053 1491 ft 20 kts 83°
2026-05-07 19:03 48.36369 11.81217 1487 ft 16 kts 14°
2026-05-07 19:03 48.36442 11.81099 1483 ft 18 kts 294°
2026-05-07 19:03 48.36478 11.80976 1488 ft 10 kts 293°
2026-05-07 19:04 48.36489 11.80939 1482 ft 0 kts 293°
2026-05-07 19:05 48.36495 11.80915 1479 ft 5 kts 293°
2026-05-07 19:05 48.36514 11.80847 1480 ft 10 kts 293°
2026-05-07 19:05 48.36546 11.80735 1482 ft 13 kts 293°
2026-05-07 19:06 48.36573 11.80627 1485 ft 6 kts 273°
2026-05-07 19:06 48.36515 11.79865 1491 ft 100 kts 263°
2026-05-07 19:06 48.36412 11.78530 1484 ft 150 kts 263°
2026-05-07 19:07 48.36284 11.76872 1821 ft 160 kts 264°
2026-05-07 19:07 48.36172 11.75207 2448 ft 160 kts 265°
2026-05-07 19:07 48.36046 11.73505 2946 ft 170 kts 265°
2026-05-07 19:07 48.35903 11.71653 3425 ft 186 kts 264°
2026-05-07 19:08 48.35804 11.69637 4014 ft 200 kts 272°
2026-05-07 19:08 48.36159 11.67541 4546 ft 219 kts 298°
2026-05-07 19:08 48.37195 11.65766 5074 ft 240 kts 326°
2026-05-07 19:08 48.38818 11.64844 5603 ft 260 kts 347°
2026-05-07 19:09 48.40637 11.64374 6401 ft 268 kts 349°
2026-05-07 19:09 48.42494 11.63906 7258 ft 272 kts 348°
2026-05-07 19:09 48.44351 11.63293 8137 ft 274 kts 339°
2026-05-07 19:09 48.46164 11.62347 9008 ft 277 kts 336°
2026-05-07 19:10 48.47991 11.61355 9895 ft 281 kts 336°
2026-05-07 19:10 48.49868 11.60342 10483 ft 295 kts 336°
2026-05-07 19:10 48.51881 11.59302 10784 ft 318 kts 341°
2026-05-07 19:10 48.54137 11.58661 11074 ft 342 kts 348°
2026-05-07 19:11 48.56559 11.58144 11359 ft 361 kts 349°
2026-05-07 19:11 48.59110 11.57601 11636 ft 379 kts 348°
2026-05-07 19:11 48.61753 11.57020 12142 ft 387 kts 348°
2026-05-07 19:11 48.64435 11.56416 12772 ft 391 kts 348°
2026-05-07 19:12 48.67139 11.55799 13417 ft 395 kts 348°
2026-05-07 19:12 48.69869 11.55171 14029 ft 398 kts 348°
2026-05-07 19:12 48.72613 11.54541 14586 ft 400 kts 348°
2026-05-07 19:12 48.75337 11.53912 15162 ft 403 kts 348°
2026-05-07 19:13 48.78114 11.53273 15755 ft 405 kts 348°
2026-05-07 19:13 48.80910 11.52630 16389 ft 408 kts 348°
2026-05-07 19:13 48.83725 11.51979 17033 ft 410 kts 348°
2026-05-07 19:13 48.86560 11.51323 17656 ft 413 kts 348°
2026-05-07 19:14 48.89408 11.50662 18248 ft 416 kts 348°
2026-05-07 19:14 48.92280 11.49994 18781 ft 419 kts 348°
2026-05-07 19:14 48.95170 11.49320 19297 ft 422 kts 348°
2026-05-07 19:14 48.98082 11.48638 19797 ft 425 kts 348°
2026-05-07 19:15 49.01023 11.47950 20247 ft 430 kts 348°
2026-05-07 19:15 49.03997 11.47257 20723 ft 434 kts 348°
2026-05-07 19:15 49.06995 11.46563 21212 ft 437 kts 348°
2026-05-07 19:15 49.10012 11.45865 21698 ft 440 kts 348°
2026-05-07 19:16 49.13052 11.45156 22183 ft 443 kts 348°
2026-05-07 19:16 49.16110 11.44440 22662 ft 446 kts 348°
2026-05-07 19:16 49.19187 11.43714 23155 ft 449 kts 349°
2026-05-07 19:16 49.22290 11.42986 23626 ft 453 kts 349°
2026-05-07 19:17 49.25413 11.42253 24029 ft 456 kts 349°
2026-05-07 19:17 49.28555 11.41514 24442 ft 458 kts 349°
2026-05-07 19:17 49.31715 11.40772 24869 ft 460 kts 349°
2026-05-07 19:17 49.34873 11.40032 25406 ft 459 kts 349°
2026-05-07 19:18 49.38024 11.39287 25967 ft 457 kts 349°
2026-05-07 19:18 49.41159 11.38547 26512 ft 455 kts 349°
2026-05-07 19:18 49.44278 11.37805 27087 ft 453 kts 349°
2026-05-07 19:18 49.47389 11.37068 27660 ft 451 kts 349°
2026-05-07 19:19 49.50485 11.36335 28202 ft 449 kts 349°
2026-05-07 19:19 49.53567 11.35601 28748 ft 448 kts 349°
2026-05-07 19:19 49.56644 11.34872 29286 ft 446 kts 349°
2026-05-07 19:19 49.59706 11.34144 29810 ft 445 kts 349°
2026-05-07 19:20 49.62764 11.33406 30250 ft 445 kts 349°
2026-05-07 19:20 49.65825 11.32669 30560 ft 446 kts 349°
2026-05-07 19:20 49.68892 11.31942 30821 ft 446 kts 349°
2026-05-07 19:20 49.71964 11.31206 31041 ft 446 kts 349°
2026-05-07 19:21 49.78096 11.29732 31087 ft 446 kts 349°
2026-05-07 19:21 49.84221 11.28254 31077 ft 446 kts 349°
2026-05-07 19:22 49.90348 11.26759 31076 ft 447 kts 350°
2026-05-07 19:22 49.96496 11.25273 31077 ft 447 kts 350°
2026-05-07 19:23 50.02641 11.23799 31067 ft 447 kts 350°
2026-05-07 19:23 50.08819 11.22645 31057 ft 448 kts 358°
2026-05-07 19:24 50.15049 11.22661 31071 ft 447 kts 359°
2026-05-07 19:24 50.21228 11.22707 31066 ft 447 kts 359°
2026-05-07 19:25 50.27490 11.22740 31071 ft 447 kts 359°
2026-05-07 19:25 50.33713 11.22784 31083 ft 447 kts 359°
2026-05-07 19:26 50.39898 11.22226 31076 ft 445 kts 353°
2026-05-07 19:26 50.45997 11.21287 31075 ft 445 kts 353°
2026-05-07 19:27 50.52190 11.20362 31086 ft 445 kts 354°
2026-05-07 19:27 50.58389 11.19434 31168 ft 450 kts 353°
2026-05-07 19:28 50.61502 11.18962 31507 ft 449 kts 353°
2026-05-07 19:28 50.64610 11.18495 31888 ft 449 kts 353°
2026-05-07 19:28 50.67720 11.18072 32263 ft 448 kts 355°
2026-05-07 19:28 50.70824 11.17739 32616 ft 447 kts 355°
2026-05-07 19:29 50.73931 11.17399 32945 ft 447 kts 355°
2026-05-07 19:29 50.77034 11.17067 33273 ft 447 kts 355°
2026-05-07 19:29 50.80134 11.16739 33588 ft 447 kts 355°
2026-05-07 19:29 50.83237 11.16412 33897 ft 447 kts 355°
2026-05-07 19:30 50.86342 11.16088 34113 ft 448 kts 355°
2026-05-07 19:30 50.89451 11.15764 34142 ft 447 kts 355°
2026-05-07 19:30 50.95654 11.15111 34120 ft 447 kts 355°
2026-05-07 19:31 51.01860 11.14452 34112 ft 447 kts 354°
2026-05-07 19:31 51.08068 11.13794 34108 ft 448 kts 355°
2026-05-07 19:32 51.14288 11.13136 34113 ft 448 kts 355°
2026-05-07 19:32 51.20504 11.12471 34118 ft 448 kts 355°
2026-05-07 19:33 51.26723 11.11807 34117 ft 448 kts 355°
2026-05-07 19:33 51.32940 11.11138 34115 ft 448 kts 355°
2026-05-07 19:34 51.39125 11.10479 34116 ft 448 kts 355°
2026-05-07 19:34 51.45350 11.09813 34120 ft 448 kts 355°
2026-05-07 19:35 51.51569 11.09140 34110 ft 448 kts 355°
2026-05-07 19:35 51.57788 11.08466 34109 ft 448 kts 355°
2026-05-07 19:36 51.64007 11.07798 34111 ft 448 kts 355°
2026-05-07 19:36 51.70225 11.07118 34107 ft 448 kts 355°
2026-05-07 19:37 51.76442 11.06438 34116 ft 448 kts 355°
2026-05-07 19:37 51.82664 11.05759 34115 ft 448 kts 355°
2026-05-07 19:38 51.88870 11.04859 34110 ft 448 kts 352°
2026-05-07 19:38 51.95050 11.03537 34110 ft 448 kts 352°
2026-05-07 19:39 52.01218 11.02220 33673 ft 446 kts 352°
2026-05-07 19:39 52.04290 11.01564 33053 ft 445 kts 352°
2026-05-07 19:39 52.06321 11.01132 32624 ft 445 kts 352°
2026-05-07 19:40 52.10424 11.00258 31753 ft 445 kts 352°
2026-05-07 19:40 52.13493 10.99600 31118 ft 445 kts 352°
2026-05-07 19:40 52.16560 10.98938 30493 ft 445 kts 352°
2026-05-07 19:40 52.19631 10.98275 29832 ft 445 kts 352°
2026-05-07 19:41 52.22707 10.97616 29110 ft 447 kts 352°
2026-05-07 19:41 52.25795 10.96957 28405 ft 449 kts 352°
2026-05-07 19:41 52.28898 10.96293 27731 ft 451 kts 352°
2026-05-07 19:41 52.32011 10.95616 27068 ft 453 kts 352°
2026-05-07 19:42 52.34082 10.95160 26620 ft 454 kts 352°
2026-05-07 19:42 52.37226 10.94474 25993 ft 457 kts 352°
2026-05-07 19:42 52.40388 10.93785 25400 ft 460 kts 351°
2026-05-07 19:42 52.43566 10.93094 24854 ft 462 kts 351°
2026-05-07 19:43 52.46756 10.92400 24323 ft 463 kts 351°
2026-05-07 19:43 52.50974 10.91483 23631 ft 460 kts 351°
2026-05-07 19:43 52.53111 10.91017 23217 ft 458 kts 351°
2026-05-07 19:43 52.56247 10.90330 22610 ft 449 kts 351°
2026-05-07 19:44 52.59300 10.89666 22046 ft 436 kts 351°
2026-05-07 19:44 52.62262 10.89027 21479 ft 421 kts 351°
2026-05-07 19:44 52.65115 10.88402 20936 ft 406 kts 351°
2026-05-07 19:44 52.67861 10.87796 20409 ft 391 kts 351°
2026-05-07 19:45 52.70511 10.87216 19897 ft 377 kts 351°
2026-05-07 19:45 52.73070 10.86653 19397 ft 366 kts 351°
2026-05-07 19:45 52.75559 10.86102 18917 ft 355 kts 351°
2026-05-07 19:45 52.77974 10.85571 18438 ft 346 kts 351°
2026-05-07 19:46 52.80327 10.85052 17894 ft 337 kts 351°
2026-05-07 19:46 52.82622 10.84546 17352 ft 329 kts 351°
2026-05-07 19:46 52.84862 10.84066 16821 ft 321 kts 352°
2026-05-07 19:46 52.87057 10.83623 16284 ft 314 kts 352°
2026-05-07 19:47 52.89204 10.83193 15784 ft 308 kts 352°
2026-05-07 19:47 52.91311 10.82769 15280 ft 302 kts 352°
2026-05-07 19:47 52.93381 10.82349 14785 ft 297 kts 352°
2026-05-07 19:47 52.95421 10.81933 14303 ft 295 kts 352°
2026-05-07 19:48 52.97454 10.81521 13843 ft 294 kts 352°
2026-05-07 19:48 52.99490 10.81107 13325 ft 295 kts 352°
2026-05-07 19:48 53.01526 10.80690 12796 ft 295 kts 352°
2026-05-07 19:48 53.03569 10.80273 12274 ft 296 kts 353°
2026-05-07 19:49 53.05607 10.79855 11766 ft 295 kts 353°
2026-05-07 19:49 53.07646 10.79438 11255 ft 295 kts 352°
2026-05-07 19:49 53.09681 10.79020 10761 ft 295 kts 353°
2026-05-07 19:49 53.11712 10.78605 10312 ft 293 kts 353°
2026-05-07 19:50 53.13675 10.78201 10129 ft 282 kts 353°
2026-05-07 19:50 53.15591 10.77808 10092 ft 276 kts 353°
2026-05-07 19:50 53.17494 10.77416 10098 ft 276 kts 353°
2026-05-07 19:50 53.19398 10.77024 10116 ft 276 kts 353°
2026-05-07 19:51 53.21303 10.76630 10120 ft 276 kts 353°
2026-05-07 19:51 53.23207 10.76238 10076 ft 276 kts 353°
2026-05-07 19:51 53.25110 10.75843 9896 ft 275 kts 353°
2026-05-07 19:51 53.27004 10.75438 9670 ft 274 kts 353°
2026-05-07 19:52 53.28886 10.75015 9435 ft 273 kts 353°
2026-05-07 19:52 53.30760 10.74593 9201 ft 271 kts 353°
2026-05-07 19:52 53.32625 10.74167 8963 ft 270 kts 353°
2026-05-07 19:52 53.34481 10.73737 8719 ft 269 kts 353°
2026-05-07 19:53 53.36328 10.73308 8473 ft 267 kts 353°
2026-05-07 19:53 53.38164 10.72875 8231 ft 266 kts 353°
2026-05-07 19:53 53.39993 10.72438 7986 ft 265 kts 352°
2026-05-07 19:53 53.41721 10.71433 7751 ft 265 kts 330°
2026-05-07 19:54 53.43242 10.69681 7530 ft 265 kts 325°
2026-05-07 19:54 53.44715 10.67823 7322 ft 265 kts 324°
2026-05-07 19:54 53.46175 10.65957 7133 ft 264 kts 324°
2026-05-07 19:54 53.47633 10.64086 7100 ft 264 kts 324°
2026-05-07 19:55 53.49089 10.62216 7126 ft 264 kts 324°
2026-05-07 19:55 53.50547 10.60342 7128 ft 264 kts 324°
2026-05-07 19:55 53.52004 10.58468 7137 ft 264 kts 324°
2026-05-07 19:55 53.53463 10.56592 7136 ft 264 kts 324°
2026-05-07 19:56 53.54924 10.54719 7130 ft 264 kts 324°
2026-05-07 19:56 53.56388 10.52844 7137 ft 264 kts 324°
2026-05-07 19:56 53.57851 10.50969 7141 ft 264 kts 324°
2026-05-07 19:56 53.59315 10.49090 7139 ft 264 kts 324°
2026-05-07 19:57 53.60777 10.47213 7139 ft 265 kts 324°
2026-05-07 19:57 53.62240 10.45332 7138 ft 264 kts 324°
2026-05-07 19:57 53.63699 10.43453 7136 ft 264 kts 324°
2026-05-07 19:57 53.65160 10.41576 7133 ft 264 kts 324°
2026-05-07 19:58 53.66623 10.39706 7120 ft 264 kts 324°
2026-05-07 19:58 53.68079 10.37819 7130 ft 264 kts 324°
2026-05-07 19:58 53.69526 10.35916 7126 ft 264 kts 322°
2026-05-07 19:58 53.70679 10.33522 7122 ft 266 kts 296°
2026-05-07 19:59 53.71097 10.30491 7133 ft 270 kts 270°
2026-05-07 19:59 53.70687 10.27422 7135 ft 272 kts 244°
2026-05-07 19:59 53.69630 10.24800 7145 ft 269 kts 231°
2026-05-07 19:59 53.68427 10.22378 7152 ft 270 kts 229°
2026-05-07 20:00 53.67218 10.19993 7148 ft 270 kts 229°
2026-05-07 20:00 53.65990 10.17581 7156 ft 272 kts 229°
2026-05-07 20:00 53.64761 10.15167 7166 ft 272 kts 229°
2026-05-07 20:00 53.63535 10.12760 7164 ft 272 kts 229°
2026-05-07 20:01 53.62306 10.10352 7169 ft 270 kts 229°
2026-05-07 20:01 53.61085 10.07962 7158 ft 271 kts 229°
2026-05-07 20:01 53.59856 10.05552 7158 ft 270 kts 229°
2026-05-07 20:01 53.58628 10.03144 7156 ft 272 kts 229°
2026-05-07 20:02 53.57397 10.00732 7159 ft 271 kts 229°
2026-05-07 20:02 53.56170 9.98346 7163 ft 269 kts 229°
2026-05-07 20:02 53.54945 9.95968 7164 ft 269 kts 229°
2026-05-07 20:02 53.53717 9.93587 7163 ft 269 kts 229°
2026-05-07 20:03 53.52489 9.91208 7161 ft 269 kts 229°
2026-05-07 20:03 53.51263 9.88834 7162 ft 269 kts 229°
2026-05-07 20:03 53.49958 9.86587 7151 ft 269 kts 218°
2026-05-07 20:03 53.48449 9.84730 7009 ft 269 kts 214°
2026-05-07 20:04 53.46913 9.82953 6797 ft 268 kts 214°
2026-05-07 20:04 53.45473 9.80980 6563 ft 267 kts 223°
2026-05-07 20:04 53.44127 9.78831 6294 ft 266 kts 224°
2026-05-07 20:04 53.42805 9.76672 5934 ft 264 kts 224°
2026-05-07 20:05 53.41514 9.74539 5659 ft 257 kts 224°
2026-05-07 20:05 53.40283 9.72486 5438 ft 242 kts 224°
2026-05-07 20:05 53.39138 9.70525 5181 ft 229 kts 230°
2026-05-07 20:05 53.38484 9.68191 4925 ft 222 kts 262°
2026-05-07 20:06 53.38637 9.65663 4681 ft 220 kts 294°
2026-05-07 20:06 53.39536 9.63647 4416 ft 216 kts 326°
2026-05-07 20:06 53.40897 9.62734 4161 ft 211 kts 359°
2026-05-07 20:06 53.42317 9.63093 3908 ft 206 kts 21°
2026-05-07 20:07 53.43662 9.63914 3654 ft 205 kts 24°
2026-05-07 20:07 53.44978 9.64754 3432 ft 205 kts 24°
2026-05-07 20:07 53.46283 9.65678 3179 ft 202 kts 34°
2026-05-07 20:07 53.47358 9.67159 2989 ft 199 kts 48°
2026-05-07 20:08 53.48243 9.68932 2961 ft 195 kts 53°
2026-05-07 20:08 53.49057 9.70601 2996 ft 172 kts 53°
2026-05-07 20:08 53.49807 9.72130 3007 ft 169 kts 53°
2026-05-07 20:08 53.50557 9.73643 3005 ft 168 kts 53°
2026-05-07 20:09 53.51307 9.75154 3000 ft 169 kts 53°
2026-05-07 20:09 53.52059 9.76668 2995 ft 169 kts 53°
2026-05-07 20:09 53.52810 9.78181 2887 ft 169 kts 53°
2026-05-07 20:10 53.54305 9.81194 2473 ft 168 kts 52°
2026-05-07 20:10 53.55049 9.82693 2234 ft 167 kts 52°
2026-05-07 20:10 53.55789 9.84186 2034 ft 166 kts 52°
2026-05-07 20:10 53.56527 9.85675 1823 ft 165 kts 52°
2026-05-07 20:11 53.57262 9.87158 1584 ft 164 kts 52°
2026-05-07 20:11 53.57933 9.88511 1354 ft 136 kts 52°
2026-05-07 20:11 53.58511 9.89680 1148 ft 127 kts 52°
2026-05-07 20:11 53.59068 9.90807 974 ft 124 kts 52°
2026-05-07 20:12 53.59618 9.91917 807 ft 124 kts 52°
2026-05-07 20:12 53.60167 9.93041 653 ft 124 kts 51°
2026-05-07 20:12 53.60728 9.94154 470 ft 125 kts 50°
2026-05-07 20:12 53.61282 9.95276 299 ft 124 kts 51°
2026-05-07 20:13 53.61843 9.96408 149 ft 125 kts 50°
2026-05-07 20:13 53.62388 9.97509 49 ft 116 kts 50°
2026-05-07 20:13 53.62778 9.98301 48 ft 54 kts 50°
2026-05-07 20:13 53.63000 9.98753 51 ft 40 kts 52°
2026-05-07 20:14 53.63087 9.99028 51 ft 26 kts 83°
2026-05-07 20:14 53.63084 9.99295 52 ft 20 kts 88°
2026-05-07 20:14 53.63145 9.99509 52 ft 22 kts 53°
2026-05-07 20:14 53.63226 9.99681 54 ft 14 kts 43°
2026-05-07 20:15 53.63299 9.99803 54 ft 16 kts 50°
2026-05-07 20:15 53.63374 9.99954 54 ft 18 kts 50°
2026-05-07 20:15 53.63431 10.00088 54 ft 13 kts 85°
2026-05-07 20:15 53.63375 10.00221 54 ft 16 kts 159°
2026-05-07 20:16 53.63282 10.00238 54 ft 12 kts 175°
2026-05-07 20:16 53.63197 10.00248 54 ft 10 kts 176°
2026-05-07 20:16 53.63164 10.00317 54 ft 6 kts 82°
2026-05-07 20:16 53.63166 10.00345 54 ft 2 kts 83°
2026-05-07 20:17 53.63167 10.00357 54 ft 0 kts 85°